Location: Beuvrequen
(50.8014°N, 1.6652°E)
Time: 21:53:35
(UTC+00:00)

Cosmos 2263 Rocket - Pass Details

Date: 16 October 2021
Orbit: 825 x 847 km, 71.0° (Epoch: 04 December)

Event Time Altitude Azimuth Distance (km) Brightness Sun altitude
Rises 19:01:00 0° 328° (NNW) 3,378 6.0 -20.0°
Reaches altitude 10° 19:03:28 10° 326° (NW) 2,439 5.2 -20.4°
Maximum altitude 19:08:59 67° 246° (WSW) 895 2.4 -21.3°
Enters shadow 19:13:06 18° 167° (SSE) 1,910 3.8 -21.9°
